Regional Weather Roundup
Issued by NWS

Home | Current Version | Previous Version | Text Only | Print | Product List | Glossary On
Versions: 1 2 3 4 5 6 7 8 9 10 11 12 13 14 15 16 17 18 19 20 21 22 23 24 25 26 27 28 29 30 31 32 33 34 35 36 37 38 39 40 41 42 43 44 45 46 47 48 49 50
000
ASUS42 KTBW 200318
RWRFL
FLORIDA REGIONAL WEATHER ROUNDUP
NATIONAL WEATHER SERVICE TAMPA BAY RUSKIN FL
1100 PM EDT FRI JUL 19 2019

NOTE: "FAIR" INDICATES FEW OR NO CLOUDS BELOW 12,000 FEET WITH NO
SIGNIFICANT WEATHER AND/OR OBSTRUCTIONS TO VISIBILITY.

FLZ001>010-012>015-112-114-115-200400-
PANHANDLE FLORIDA

CITY           SKY/WX    TMP DP  RH WIND       PRES   REMARKS
PENSACOLA      FAIR      76  74  93 E5        30.06F
PENSACOLA NAS  MOCLDY    75  72  90 CALM      30.06S
MILTON NAS     CLOUDY    71  71 100 SE5       30.07F
CRESTVIEW      LGT RAIN  73  72  96 SE3       30.09F
DUKE FIELD     FAIR      73  73 100 S5        30.08F
VALPARAISO     FAIR      75  71  88 E5        30.08R
MARY ESTHER    CLOUDY    74  72  93 CALM      30.06S
TRI COUNTY     MOCLDY    76  74  93 CALM      30.10R
PANAMA CITY    LGT RAIN  77  72  84 SW6       30.11R
TYNDALL AFB    MOCLDY    75  72  88 NE6G17    30.09R THUNDER
APALACHICOLA   FAIR      77  74  90 CALM      30.09R

STATION/POSITION SKY/WX   TEMP    WIND        PRES    WAVE   SWELL
                          AIR SEA DIR/SP/G            HT/PER HT/PER
                          (F)     (DEG/KT/KT) (MB)    (FT/S) (FT/S)
30.1N   87.6W              81 87   50/ 10/ 10 1018.3R   2/ 3   2/ 9
29.2N   88.2W              85     130/  4/  6 1018.1
28.8N   86.0W              85 88  120/  4/  6 1018.6R   1/ 9
PANAMA CITY BEAC           82 87   30/  8/ 12 1019.3R
TOWER C                    83      90/  4/  5 1019.4R
28.5N   84.5W              84      CALM  /  2 1019.7R   1/ 4

$$
FLZ011-016>038-118-127-128-134-139-239-200400-
NORTH FLORIDA

CITY           SKY/WX    TMP DP  RH WIND       PRES   REMARKS
MARIANNA       FAIR      75  72  90 S5        30.08R
TALLAHASSEE    MOCLDY    75  74  96 CALM      30.10R
PERRY          FAIR      75  74  97 CALM      30.12R
LIVE OAK       CLEAR     73  73 100 CALM      30.11R
CROSS CITY     FAIR      74  73  95 CALM      30.12S
LAKE CITY      FAIR      72  70  94 CALM      30.12R
GAINESVILLE    FAIR      73  72  96 CALM      30.13S
WILLISTON      FAIR      74  73  98 CALM      30.11S
PALATKA        MOCLDY    73  73 100 CALM      30.11S
MAYPORT NAS    FAIR      79  71  76 NW3       30.11S
JACKSONVILLE   FAIR      73  71  93 CALM      30.10F
JAX NAS        MOCLDY    79  71  76 NW3       30.11S
JAX CECIL      CLEAR     72  70  94 CALM      30.11S
FERNANDINA BEA FAIR      74  72  92 CALM      30.11S
ST AUGUSTINE   FAIR      76  73  91 NW3       30.12S
PALM COAST     FAIR      74  72  93 CALM      30.10S

STATION/POSITION SKY/WX   TEMP    WIND        PRES    WAVE   SWELL
                          AIR SEA DIR/SP/G            HT/PER HT/PER
                          (F)     (DEG/KT/KT) (MB)    (FT/S) (FT/S)
SHELL POINT      NOT AVBL
KEATON BEACH               75      60/  3/  4 1019.6R
CEDAR KEY                  81      80/  8/  9 1019.3R
FERNANDINA                 80 85  230/  2/  4 1020.5S
30.7N   81.3W                 84                N/A     2/10
MAYPORT                    79 81  270/  2/  4 1020.2R
31.4N   80.9W              80 84  290/ 14/ 17 1019.1R   2/10   2/10
ST AUGUSTINE               78 76  320/  3/  4 1019.5S

$$
FLZ040-043>046-052-053-057-058-063-144-200400-
INTERIOR CENTRAL FLORIDA

CITY           SKY/WX    TMP DP  RH WIND       PRES   REMARKS
OCALA          FAIR      77  71  82 CALM      30.12R
LEESBURG       FAIR      77  73  87 NE3       30.11S
SANFORD        FAIR      75  72  90 CALM      30.11R
ORLANDO EXEC   FAIR      80  72  76 N6        30.10R
ORLANDO INTL   FAIR      79  72  79 CALM      30.10R
KISSIMMEE      FAIR      80  73  79 E5        30.11S
WINTER HAVEN   FAIR      78  72  81 NW5       30.12R
LAKELAND       FAIR      72  70  94 CALM      30.11S
BARTOW         FAIR      79  72  78 NW5       30.10R
SEBRING        FAIR      78  71  80 N6        30.11S
OKEECHOBEE     FAIR      75  72  88 CALM      30.10R

$$
FLZ041-047-054-059-064-141-147-200400-
EAST CENTRAL FLORIDA

CITY           SKY/WX    TMP DP  RH WIND       PRES   REMARKS
DAYTONA BEACH  FAIR      77  74  90 NW3       30.11R
DELAND         FAIR      73  72  94 CALM      30.11R
JFK SPACE CTR  CLEAR     78  67  68 S3        30.09S
CAPE CANAVERAL CLEAR     81  53  38 SW5       30.09R
PATRICK AFB    FAIR      83  80  91 S7        30.09R
MELBOURNE      FAIR      84  76  76 SE6       30.10R
VERO BEACH     FAIR      81  76  84 CALM      30.09R
FT PIERCE      FAIR      79  74  84 E6        30.08R
STUART         FAIR      79  73  83 CALM      30.10R

STATION/POSITION SKY/WX   TEMP    WIND        PRES    WAVE   SWELL
                          AIR SEA DIR/SP/G            HT/PER HT/PER
                          (F)     (DEG/KT/KT) (MB)    (FT/S) (FT/S)
28.5N   80.2W              84 85  160/  8/ 10 1018.9R   1/ 9   2/ 9
28.9N   78.5W              85 86  150/  6/ 10   N/A     3/ 8   3/ 8
TRIDENT PIER               82 83  140/  4/  5 1020.3S
28.4N   80.5W                 82                N/A     1/10
27.5N   80.2W                 83                N/A     1/ 8

$$
FLZ050-056-061-142-242-148-248-149-249-151-251-155-255-
160-260-200400-
WEST CENTRAL FLORIDA

CITY           SKY/WX    TMP DP  RH WIND       PRES   REMARKS
CRYSTAL RIVER  FAIR      77  73  88 CALM      30.10F
INVERNESS      FAIR      77  77 100 CALM      30.10F
BROOKSVILLE    FAIR      75  71  87 NE7       30.10S
CLEARWATER AIR DRIZZLE   72  70  94 CALM      30.09R
ST PETE CLEARW RAIN      77  72  84 NE6       30.08R
TAMPA INTL     LGT RAIN  75  69  81 CALM      30.10R
TAMPA EXEC       N/A     72  72 100 CALM      30.10S
PLANT CITY     FAIR     N/A N/A N/A MISG      30.12S
MACDILL AFB    LGT RAIN  74  70  88 CALM      30.10R
PETER O KNIGHT MOCLDY   N/A N/A N/A CALM      30.10R
ST PETERSBURG  LGT RAIN  79  70  74 NE6       30.08R
SARASOTA       LGT RAIN  75  71  87 VRB3      30.08R
VENICE         FAIR      77  70  78 NE8       30.10R

STATION/POSITION SKY/WX   TEMP    WIND        PRES    WAVE   SWELL
                          AIR SEA DIR/SP/G            HT/PER HT/PER
                          (F)     (DEG/KT/KT) (MB)    (FT/S) (FT/S)
27.3N   84.2W                 87                N/A     2/ 4
CLEARWATER BEACH           76 89   20/  6/  8 1018.8R
MIDDLE TAMPA BAY           78     120/  7/  9 1019.1R
VENICE                     76 86   40/  7/  9 1018.9R

$$
FLZ066-069-070-075>078-162-262-165-265-200400-
SOUTHWEST FLORIDA AND KEYS

CITY           SKY/WX    TMP DP  RH WIND       PRES   REMARKS
PUNTA GORDA    FAIR      74  72  93 NE7       30.11R
FT MYERS       FAIR      75  72  90 CALM      30.09R
SOUTHWEST INTL FAIR      76  73  91 CALM      30.09R
MARCO ISLAND   FAIR      77  74  90 MISG      30.09R
IMMOKALEE      CLOUDY    75  73  94 CALM      30.08R
MARATHON       FAIR      85  75  72 VRB6      30.06R
KEY WEST NAS   FAIR      87  76  69 E12       30.06R HX  97
KEY WEST INTL  FAIR      85  76  74 E10       30.06R

STATION/POSITION SKY/WX   TEMP    WIND        PRES    WAVE   SWELL
                          AIR SEA DIR/SP/G            HT/PER HT/PER
                          (F)     (DEG/KT/KT) (MB)    (FT/S) (FT/S)
NAPLES                     78 88              1018.6R
26.0N   85.6W              85 86  100/ 10/ 10 1018.2R   2/ 5   2/ 5
DRY TORTUGAS               85      70/ 11/ 12 1017.7R
SAND KEY                   85     100/ 14/ 16 1016.6
SOMBRERO KEY               85      90/ 12/ 14 1018.2
LONG KEY                   85                 1017.2

$$
FLZ067-068-071>074-168-172>174-200400-
SOUTHEAST FLORIDA

CITY           SKY/WX    TMP DP  RH WIND       PRES   REMARKS
W PALM BEACH   FAIR      84  72  67 E9        30.09R
BOCA RATON     PTCLDY    84  73  70 SE8       30.08R
FT LAUDER-EXEC FAIR      84  75  74 E12       30.08R
FT LAUDERDALE  FAIR      85  75  72 E14       30.07R
POMPANO BEACH  FAIR      85  74  69 E10       30.08R
PEMBROKE PINES FAIR      86  73  65 SE8       30.10R
OPA LOCKA      FAIR      84  74  71 E6        30.09R
MIAMI          MOCLDY    85  73  67 E7        30.08R
WEST KENDALL     N/A    N/A N/A N/A MISG      30.08R
HOMESTEAD      FAIR      83  76  79 E5        30.07R

STATION/POSITION SKY/WX   TEMP    WIND        PRES    WAVE   SWELL
                          AIR SEA DIR/SP/G            HT/PER HT/PER
                          (F)     (DEG/KT/KT) (MB)    (FT/S) (FT/S)
PORT EVERGLADES            85      90/  8/ 11 1018.5R
VIRGINIA KEY               85 89   60/ 10/ 13 1018.1R
LAKE WORTH                 84 85  110/ 11/ 12 1019.7R
FOWEY ROCKS                85 85   90/ 10/ 11 1018.8R
SETTLEMENT POINT           83     140/  5/  6 1019.6R

$$




USA.gov is the U.S. government's official web portal to all federal, state and local government web resources and services.